Wind_Speed
12 12 13 14 15 15 15 14 14 12 10 7 7 8 10 11 13 14 15 16 16 17 19 20 21 22 23 24 25 27 28 28 29 30 30 31 31 32 33 35 36 38 39 41 43 45 46 47 47 46 45 44 43 42 43 44 46 48 49 51 53 54 54 55 55 55 56 56 56 56 57 57 57 57 56 57 57 58 59 60 60 60 60 58 57
13 12 13 14 16 16 16 15 13 11 8 7 8 10 11 12 13 14 15 16 17 18 20 21 22 22 23 25 26 27 27 28 29 30 30 31 32 34 35 37 38 39 41 43 45 47 47 47 46 45 44 43 43 44 46 48 50 51 53 54 55 55 55 54 54 54 55 56 57 57 58 59 59 59 59 58 58 58 58 59 61 61 62 62 61
14 12 12 14 15 17 17 15 13 10 8 9 10 11 12 13 14 15 16 17 18 19 20 21 22 23 24 25 26 26 27 28 29 30 31 32 34 36 37 38 39 41 43 45 46 47 46 45 44 44 44 44 45 47 49 51 52 53 54 55 55 55 55 55 56 56 57 58 59 59 59 59 59 59 59 58 58 58 57 57 58 60 61 62 62
16 14 13 13 14 15 16 15 13 12 11 12 12 13 14 14 15 16 17 18 19 19 20 21 22 23 24 25 26 26 27 28 30 31 33 34 36 37 38 40 41 43 44 45 45 44 43 43 43 44 44 46 48 50 51 53 54 54 54 54 55 55 56 57 57 58 58 58 58 58 58 58 58 57 56 55 55 55 55 55 55 56 57 58 59
17 16 14 14 14 14 14 14 14 13 13 13 13 14 15 15 16 17 18 19 19 20 20 21 23 24 25 25 26 26 28 30 31 33 34 36 37 38 40 41 42 43 44 44 43 42 42 42 43 44 46 48 50 52 53 53 53 54 54 54 55 56 56 56 57 57 56 56 54 54 54 54 53 54 54 53 51 51 51 52 53 53 53 54 56
18 17 16 15 14 14 14 14 14 14 14 13 13 14 15 17 18 18 19 20 20 20 21 22 23 24 24 25 26 28 30 31 33 34 36 37 39 40 41 42 42 42 42 41 41 41 42 43 44 46 48 50 51 52 52 52 52 53 54 54 55 55 55 54 54 53 51 51 50 49 49 49 50 51 52 52 52 51 50 49 51 52 52 52 54
19 19 17 16 15 15 15 15 15 15 14 14 14 15 17 18 19 19 19 20 20 21 22 23 23 24 24 26 28 30 31 33 34 36 37 38 40 41 41 41 40 40 39 40 40 41 42 44 46 48 49 50 51 51 51 52 52 53 54 54 54 53 52 51 49 48 47 47 47 47 47 48 49 50 52 52 52 52 51 49 49 50 51 51 53
20 20 19 18 17 16 16 16 16 16 15 15 15 17 18 18 19 19 19 19 20 21 22 22 23 24 26 28 30 31 33 34 35 37 38 39 40 41 40 39 38 38 38 39 40 41 43 45 47 48 49 49 49 50 51 52 53 53 53 52 52 50 49 47 46 46 46 45 46 47 47 48 48 49 50 50 49 49 49 48 46 45 45 46 49
21 20 20 19 18 17 17 17 17 17 17 17 17 17 17 18 18 18 19 19 20 21 21 22 24 26 28 30 31 32 34 35 36 37 38 39 39 39 38 37 36 37 37 38 40 42 44 46 47 48 48 49 49 51 52 52 53 52 52 50 48 46 45 45 44 44 45 45 46 47 48 48 48 47 48 48 46 44 42 40 39 39 40 41 44
22 22 21 20 19 19 18 18 18 18 18 18 18 18 18 18 18 18 19 19 20 20 21 23 26 28 29 31 32 33 34 35 36 37 37 37 37 36 35 35 36 36 37 39 41 43 45 46 47 48 48 49 51 52 52 53 52 51 49 47 45 44 43 43 44 44 45 46 47 48 48 49 47 46 46 46 43 39 35 33 33 35 37 38 40
24 23 22 21 20 20 20 20 20 20 20 19 19 20 20 19 19 19 19 19 19 21 23 25 27 29 30 31 33 34 35 35 36 36 36 35 34 33 34 34 35 36 38 40 42 44 45 46 46 47 49 50 51 52 52 51 50 48 46 44 43 43 43 43 43 44 45 46 47 48 49 49 47 46 45 42 37 32 31 32 34 36 36 35 34
25 25 23 22 22 22 22 22 21 21 21 21 21 21 21 20 20 20 19 19 21 22 25 27 29 30 31 32 33 34 35 36 36 35 34 32 32 32 32 33 35 37 39 41 42 44 44 45 46 47 49 50 51 50 49 48 46 44 43 42 42 42 43 43 43 44 45 46 48 49 50 50 49 47 44 38 31 30 31 35 38 38 35 33 31
26 25 25 24 24 24 23 23 23 23 22 22 22 22 22 21 21 20 20 21 22 24 26 28 29 30 31 32 34 35 36 35 35 33 32 31 31 31 32 34 35 37 39 40 42 43 43 44 46 48 49 49 49 47 46 44 42 41 41 40 41 41 42 43 43 44 45 46 48 49 51 51 50 50 47 39 32 32 34 37 40 40 35 33 34
27 27 27 27 26 25 25 24 24 24 24 24 23 23 23 22 22 22 22 23 24 26 28 29 30 31 32 33 35 35 35 34 33 32 31 30 30 31 32 34 35 37 39 40 41 42 43 45 46 47 47 47 45 43 41 40 40 39 39 39 40 40 41 42 42 43 44 46 47 49 51 52 51 52 51 45 38 36 36 38 41 41 39 39 39
28 29 29 28 27 27 26 26 26 26 25 25 25 25 24 23 23 24 24 24 26 27 29 30 30 31 33 34 35 35 34 33 32 31 30 30 31 31 32 34 35 37 38 39 40 41 43 45 46 46 45 43 41 40 39 38 38 38 38 38 39 40 40 41 42 43 44 45 47 49 51 52 52 52 52 48 43 40 38 39 43 42 41 41 37
29 30 30 29 29 29 29 28 29 29 27 27 27 26 25 24 25 25 25 26 27 28 29 30 31 32 33 34 35 34 33 31 30 29 29 30 30 31 32 34 35 37 38 39 40 41 43 44 44 43 42 40 38 37 37 37 37 37 37 38 38 39 40 41 41 42 43 44 46 49 51 52 52 51 51 49 44 39 36 37 41 41 39 35 31
29 31 31 31 31 31 30 30 31 30 29 29 29 28 26 26 26 26 26 27 27 28 29 30 31 33 34 34 33 32 30 30 29 29 29 29 30 31 32 34 36 37 37 38 39 41 43 43 42 40 39 37 36 36 36 36 35 35 36 36 37 38 39 40 40 41 41 43 45 47 50 51 51 50 50 48 44 37 34 35 38 39 37 32 28
30 31 32 32 33 33 32 32 33 32 31 31 31 30 28 27 27 27 27 27 27 28 29 30 32 33 33 33 31 29 29 28 28 28 28 28 29 31 33 34 35 36 36 38 40 41 41 40 39 37 36 35 34 34 34 34 34 34 35 36 36 37 38 38 38 39 39 40 42 44 47 49 49 48 48 47 44 37 33 35 37 38 36 31 27
31 32 32 32 33 34 34 35 36 36 36 36 34 30 28 27 27 27 26 26 27 28 29 31 32 32 32 30 29 27 27 27 27 27 27 28 30 31 33 34 34 35 36 38 39 40 39 38 36 35 34 33 33 33 33 33 33 34 35 36 37 37 37 37 38 38 38 39 40 41 44 47 48 47 46 46 44 38 34 34 36 37 35 31 26
32 32 31 30 29 31 32 33 34 37 40 39 33 28 27 26 25 25 25 26 28 29 30 31 31 31 30 28 27 26 26 26 26 26 27 28 30 31 32 33 33 34 36 38 38 38 37 35 34 33 32 32 32 32 32 32 33 34 35 36 37 37 37 38 39 39 39 39 40 40 42 46 47 46 44 44 43 39 34 34 36 37 36 32 28
32 32 31 29 29 30 30 31 32 36 39 36 30 26 24 23 23 24 25 27 28 28 30 30 30 30 28 26 25 25 25 25 26 26 27 29 30 31 31 32 32 33 36 37 36 36 34 33 32 31 31 31 31 31 32 32 33 34 35 36 37 37 38 38 39 40 40 39 40 39 40 43 45 45 43 43 43 41 36 34 34 36 37 33 29
32 31 30 29 29 29 29 30 30 31 32 29 25 23 22 22 23 25 26 27 28 28 29 29 29 27 26 25 25 24 25 25 26 26 27 28 29 30 30 31 32 33 35 35 34 34 32 31 30 29 29 30 30 30 31 31 32 34 35 36 37 38 38 38 39 39 39 39 39 39 39 40 43 45 43 42 44 43 40 38 35 34 36 35 32
31 30 29 28 28 28 28 27 27 26 25 24 23 23 22 23 24 25 26 27 28 28 28 28 27 26 25 24 24 24 25 25 26 26 27 28 28 29 29 30 32 33 34 33 32 32 30 29 28 28 28 29 29 29 30 30 31 32 34 35 36 37 38 38 39 39 39 39 39 38 38 39 42 44 43 43 44 44 44 43 37 34 34 34 33
30 30 29 28 28 27 26 26 26 25 25 24 23 22 22 23 24 25 26 27 27 28 27 27 26 25 24 24 24 24 25 25 25 26 27 27 28 28 28 30 31 32 32 31 31 30 28 27 27 27 28 28 29 29 29 30 30 31 32 34 35 36 37 38 38 38 38 39 39 38 38 38 40 43 44 43 43 43 43 44 41 37 35 33 32
30 29 29 28 28 26 25 24 24 24 24 22 22 21 22 23 24 25 26 26 26 27 27 26 26 25 25 24 24 24 25 25 25 26 26 27 27 27 28 29 31 31 30 30 29 28 26 26 26 26 27 28 29 29 29 29 29 30 31 32 34 35 36 36 37 38 38 38 39 39 39 39 39 42 44 44 42 39 38 39 39 39 38 35 32
28 29 29 28 26 25 23 23 23 23 23 21 21 21 22 23 24 25 25 26 27 27 27 26 26 25 24 24 24 25 25 25 25 25 25 26 26 27 28 29 30 29 29 28 27 26 25 24 25 25 26 28 29 29 29 29 29 29 30 32 33 33 34 35 36 37 38 39 39 39 40 40 40 40 41 42 42 40 37 36 37 38 38 37 34
28 29 28 27 25 24 23 22 23 23 22 21 20 20 21 22 23 24 25 26 27 28 27 26 25 25 24 24 24 24 24 24 24 25 25 26 26 26 27 28 28 28 27 26 25 24 23 23 24 25 26 27 28 29 30 30 30 30 31 31 32 33 33 34 35 37 38 39 39 40 40 40 40 39 39 40 41 41 40 38 37 36 36 36 34
28 28 27 26 25 25 24 23 23 23 21 20 19 20 21 22 24 25 26 27 27 27 26 25 24 24 24 24 24 24 24 24 24 24 25 25 25 26 27 27 27 27 26 25 24 23 22 23 24 24 25 26 28 29 30 30 30 30 31 31 32 32 33 34 35 36 37 37 38 39 39 39 39 39 38 38 39 41 41 41 39 37 36 34 33
29 28 27 26 26 25 24 24 23 23 21 20 19 20 22 23 24 25 26 26 27 26 25 25 24 24 24 24 24 24 24 24 24 24 24 25 25 26 26 26 26 25 25 24 23 22 22 23 23 24 25 26 27 28 29 30 30 31 31 31 31 32 32 33 33 34 34 35 36 37 37 38 38 39 39 38 38 38 40 40 40 40 38 36 34
29 28 26 27 27 26 25 24 24 23 22 21 21 22 23 24 25 25 25 26 26 26 25 24 24 24 24 24 23 23 23 23 23 24 24 24 25 25 25 25 25 24 23 23 21 21 21 22 23 23 24 26 27 28 28 29 29 30 30 31 31 31 31 32 32 33 33 34 34 35 36 36 37 37 38 38 38 37 38 39 40 40 39 38 36
30 28 28 28 28 28 27 26 25 24 22 22 23 23 24 25 25 25 25 25 25 25 25 25 24 24 24 24 23 23 23 23 23 23 24 24 25 25 24 24 24 23 22 21 20 20 21 21 22 23 24 25 26 27 28 28 28 29 29 30 30 30 31 31 32 32 32 32 33 33 34 35 35 35 36 37 37 37 37 37 37 38 38 38 37
32 30 30 30 30 29 28 27 25 24 24 24 24 25 25 25 25 25 25 25 25 25 25 25 25 25 25 24 24 24 23 23 23 23 23 24 24 24 23 23 23 22 21 21 20 20 20 21 22 23 24 25 26 27 27 28 28 28 28 29 29 30 30 30 31 31 31 31 32 32 32 33 33 34 34 35 36 36 36 35 35 36 36 36 36
34 33 31 31 31 30 29 28 27 26 25 26 26 26 26 25 25 25 25 25 25 26 25 25 25 25 25 25 24 24 24 23 23 23 24 24 24 23 22 22 22 21 21 20 20 20 20 21 22 23 24 25 26 27 28 28 28 28 28 28 28 29 29 30 31 31 32 32 32 32 32 31 32 32 33 33 33 34 35 35 34 34 34 34 34
37 36 34 34 33 32 31 30 29 28 27 27 27 26 26 26 25 25 25 25 25 25 25 25 25 25 25 25 25 24 24 23 23 23 24 24 24 23 22 22 22 21 20 20 20 20 21 21 21 22 24 25 26 28 28 28 28 28 28 28 28 29 29 30 31 31 32 32 32 32 32 32 31 30 31 31 32 32 33 33 33 32 32 32 32
36 38 38 37 35 34 33 32 30 29 29 29 28 28 27 26 25 25 26 26 25 25 25 25 26 26 26 25 25 24 24 23 23 24 24 24 24 23 22 22 22 21 20 20 20 21 21 22 22 23 24 25 27 28 29 29 29 29 29 29 29 29 29 30 30 31 32 32 32 32 32 32 31 30 29 29 30 30 30 31 31 32 31 30 30
35 36 38 40 39 37 35 34 32 31 31 31 31 29 27 26 26 26 26 25 25 25 26 26 26 26 26 26 25 25 24 24 23 24 24 24 24 23 22 22 22 22 21 21 20 21 22 23 23 23 24 26 27 29 30 30 30 31 30 30 30 30 30 29 29 30 31 32 32 32 32 32 32 31 30 29 29 29 30 30 30 30 31 31 30
39 38 37 38 40 39 36 35 34 33 33 34 32 29 28 27 27 26 26 26 26 26 26 27 27 27 27 26 26 25 25 24 24 24 24 24 23 23 22 22 22 22 22 21 21 22 23 24 24 24 25 26 28 29 30 31 32 32 32 31 31 31 30 29 28 28 29 31 32 32 32 32 32 31 31 30 29 28 29 29 29 29 29 30 30
41 41 38 38 38 38 37 36 35 35 36 35 32 29 28 28 28 27 27 26 27 27 27 27 27 27 27 27 26 26 25 24 24 23 23 24 23 23 22 22 23 23 23 22 22 23 24 25 25 26 26 28 29 30 31 32 33 33 33 33 33 32 32 31 29 28 28 29 31 32 33 33 32 32 31 31 30 29 28 28 29 29 29 29 29
39 39 39 40 41 41 41 39 38 38 37 35 31 29 29 28 28 28 28 27 28 28 29 29 29 28 28 28 27 26 25 24 24 23 23 23 23 23 23 23 23 24 23 23 23 23 25 26 27 27 28 29 30 31 32 33 34 34 34 34 34 34 34 33 32 31 30 30 31 32 33 33 33 33 32 32 31 30 29 28 28 28 28 28 28
38 38 39 41 43 44 44 42 41 40 39 36 32 30 30 30 30 30 29 29 30 30 31 31 30 30 29 28 27 26 25 24 23 23 23 23 23 23 24 24 24 24 24 24 24 25 26 27 28 29 30 31 32 33 34 35 35 35 35 35 36 36 36 35 34 34 34 34 34 34 34 34 34 34 34 33 33 32 31 30 29 28 28 28 28
38 41 43 43 43 43 44 44 42 41 40 37 34 32 32 32 32 31 30 31 32 32 33 33 33 32 31 29 27 26 25 24 23 23 23 23 23 23 24 25 25 25 25 25 25 26 27 28 29 30 31 32 34 35 36 36 36 36 37 37 38 38 38 37 37 37 37 38 37 37 37 36 35 35 35 35 34 34 33 32 32 31 30 29 29
37 41 46 48 46 44 44 45 44 42 40 38 36 35 34 34 33 31 31 32 33 34 34 35 36 35 34 31 28 27 25 24 23 24 24 24 24 24 25 26 26 26 26 26 27 28 29 30 30 31 33 34 35 36 37 38 38 38 39 39 40 40 40 39 38 38 38 39 39 39 39 38 37 36 35 35 35 36 35 35 34 34 33 32 32
38 40 46 52 50 45 45 46 44 42 40 39 38 37 37 36 35 34 33 33 34 35 36 37 37 37 35 32 29 27 26 24 24 25 25 24 24 25 26 26 27 27 28 28 29 30 31 31 32 34 35 36 37 38 39 39 39 40 41 42 42 42 42 42 41 40 39 39 40 40 40 40 39 38 37 36 36 36 36 36 36 36 36 35 35
37 38 41 49 51 47 45 45 44 42 41 41 41 41 40 39 39 38 37 36 37 38 38 39 39 38 35 32 29 28 27 26 26 26 26 26 25 26 26 27 28 29 29 30 31 31 32 33 34 36 37 37 38 39 40 40 41 42 43 43 44 44 44 44 43 42 42 41 41 41 41 40 40 40 39 38 38 37 37 37 38 38 38 38 38
36 37 41 48 52 48 45 45 43 43 44 44 43 42 42 42 42 41 41 41 41 40 41 41 41 38 34 32 30 29 28 27 27 28 28 27 27 27 28 29 29 30 31 32 32 33 34 35 37 38 38 39 39 40 41 41 42 43 44 45 45 46 46 46 45 45 44 43 43 42 42 41 41 41 41 40 39 39 39 39 39 39 39 39 39
35 35 39 45 49 46 44 43 44 44 45 45 45 45 46 46 46 45 45 45 44 44 44 44 41 36 33 32 31 30 29 29 29 30 29 29 29 29 29 30 31 32 33 34 34 35 36 37 38 39 39 40 40 41 41 42 43 44 45 46 47 47 47 47 47 47 46 45 44 44 43 43 44 43 43 42 41 40 40 40 40 40 40 40 41
35 34 35 37 39 40 41 43 45 46 46 46 46 47 48 49 49 48 48 48 49 49 47 43 38 34 33 33 33 31 31 31 31 31 31 31 30 31 31 32 33 34 35 36 37 38 38 39 40 40 41 41 41 42 42 43 44 45 46 47 48 48 48 49 49 49 48 47 46 45 45 45 46 46 45 44 43 43 42 42 42 42 42 42 42
36 35 34 35 36 37 38 38 40 42 44 46 49 50 51 53 53 51 50 51 50 49 44 39 35 34 35 34 33 32 32 32 32 32 33 33 33 33 33 34 35 36 38 38 39 40 40 41 42 42 42 42 43 43 44 45 46 47 48 49 49 49 50 50 50 50 50 49 49 48 48 48 48 48 48 47 46 46 45 45 45 45 45 44 44
38 37 36 35 35 35 34 33 33 35 38 42 46 47 48 50 50 50 49 49 48 44 40 37 36 35 35 34 33 33 33 34 34 35 35 35 35 35 35 36 38 39 40 40 41 41 42 43 43 43 44 44 45 46 46 47 48 49 51 52 52 52 52 52 52 52 52 52 52 52 52 51 51 51 50 49 49 48 48 47 47 47 47 47 47
34 34 34 32 32 33 33 33 33 33 34 35 36 36 36 39 42 44 44 44 43 41 39 37 36 36 35 35 35 35 35 36 36 37 37 37 37 37 38 39 40 40 41 42 42 43 43 44 44 45 46 46 47 48 49 50 50 51 53 54 55 55 55 55 55 55 55 55 55 55 55 54 54 54 53 52 51 51 50 50 49 49 49 48 48
27 28 28 29 29 31 33 33 33 32 31 30 29 29 31 34 37 38 38 39 39 39 39 38 37 37 37 37 37 36 37 37 38 38 38 39 39 40 40 41 41 41 42 42 43 44 45 45 46 46 47 48 49 50 51 52 53 54 55 56 56 57 57 57 57 58 58 58 58 58 58 58 57 56 55 54 54 53 52 51 51 50 50 49 49
Wind_Direction
217 215 214 212 209 206 204 205 205 201 197 202 216 231 240 246 252 257 262 266 271 274 278 281 284 285 286 286 286 288 291 295 297 299 301 304 305 306 306 307 307 307 307 308 309 310 312 314 315 315 314 313 312 311 310 310 310 309 308 308 306 305 304 303 302 302 303 302 301 300 298 297 296 294 293 291 290 289 287 286 284 282 280 277 275
216 214 215 213 208 205 206 207 206 202 203 218 232 240 246 251 256 260 264 268 272 275 278 280 282 284 285 286 288 291 294 297 299 300 302 304 306 307 307 307 307 308 308 309 310 312 314 315 315 314 314 313 312 312 312 312 312 311 310 309 308 307 306 305 305 304 304 304 303 301 300 299 297 296 294 292 290 288 287 285 283 281 280 278 275
219 217 218 218 215 212 210 208 205 205 214 229 237 241 245 249 254 258 262 267 270 273 276 280 283 284 286 288 290 294 296 298 300 302 304 306 307 307 307 307 307 308 309 310 312 313 315 315 315 314 313 313 313 313 313 313 312 312 312 311 310 310 309 308 308 307 306 306 305 304 302 300 299 297 295 293 291 289 286 285 283 281 279 277 275
224 224 226 228 225 222 218 213 208 210 219 229 234 239 245 249 255 259 263 267 270 274 278 282 284 286 289 291 294 297 298 300 302 304 305 306 306 307 307 308 308 308 309 311 313 314 315 314 314 313 313 313 314 314 314 314 313 313 312 312 312 312 312 312 311 310 309 308 307 306 304 303 301 300 298 297 295 293 290 288 285 282 280 278 275
230 231 235 237 233 229 225 220 216 216 220 227 234 241 249 255 261 264 267 270 272 276 280 283 286 289 292 295 297 299 301 302 303 304 304 305 307 308 308 308 308 309 310 313 314 314 314 313 313 313 313 314 314 315 315 314 314 313 313 313 314 315 315 314 313 312 311 310 309 309 308 307 306 305 303 301 299 297 295 293 290 286 282 280 277
237 239 242 243 240 236 231 227 224 222 223 230 239 247 254 259 263 265 268 271 274 278 281 285 289 291 295 298 300 301 301 302 302 303 305 307 308 309 309 309 309 310 312 314 314 313 313 312 313 314 315 315 315 315 315 314 314 315 315 316 316 316 316 315 314 314 314 314 313 313 313 312 311 309 307 305 302 299 296 294 292 290 286 282 278
243 246 247 247 246 243 239 234 230 227 228 236 246 253 257 260 263 265 268 271 275 279 283 287 290 293 297 299 299 300 300 301 303 304 306 308 309 310 310 310 310 312 313 313 313 312 313 314 315 316 316 315 315 315 315 316 316 317 318 318 317 317 317 316 317 317 317 318 318 317 317 316 315 313 310 308 306 303 300 296 293 291 289 285 281
246 248 249 249 249 248 244 240 235 230 231 240 248 253 256 259 262 266 270 274 278 282 285 289 292 295 297 298 298 299 300 302 303 305 306 307 308 310 310 310 312 313 312 312 312 313 315 316 316 315 315 315 316 316 317 317 319 319 319 319 319 319 319 320 321 321 321 321 321 320 320 319 318 316 313 310 308 305 302 299 296 293 291 288 285
246 247 248 248 248 248 246 243 239 234 235 240 245 249 254 259 264 269 274 278 280 284 288 291 293 295 295 296 298 299 300 302 304 305 306 307 309 310 310 311 312 312 312 313 314 316 316 316 316 315 316 317 317 318 318 319 320 320 320 320 321 321 323 324 324 325 325 324 324 323 323 323 322 320 316 313 311 307 303 301 301 301 298 296 293
246 247 246 247 247 247 247 245 241 238 237 241 245 250 257 262 268 272 275 278 281 285 288 290 292 293 295 297 298 299 301 303 304 306 307 308 309 310 310 310 311 311 313 315 316 317 316 316 317 318 318 318 319 319 320 321 321 321 322 322 324 325 326 327 328 328 328 327 327 327 327 328 327 326 323 319 315 311 307 306 306 306 303 299 295
246 247 246 247 248 249 248 246 242 239 240 243 247 251 257 263 269 272 274 277 281 284 287 289 292 293 295 296 298 300 302 304 306 308 309 310 310 309 309 310 311 313 316 317 317 317 317 318 319 319 319 320 321 322 322 323 324 324 325 326 327 328 329 330 330 330 330 330 331 331 332 332 332 332 330 325 317 311 309 309 310 310 306 300 295
246 247 247 248 248 250 250 247 244 242 243 246 248 251 257 264 269 271 274 276 279 283 287 290 292 293 294 296 298 301 303 305 308 310 310 311 311 310 310 312 314 316 318 318 318 318 319 320 320 320 321 322 323 324 325 325 326 327 328 330 331 331 332 332 332 332 332 334 334 335 336 336 337 338 337 332 322 313 310 311 315 318 314 305 299
247 248 248 248 249 251 252 251 247 245 246 247 248 252 259 264 268 270 272 275 279 285 289 291 292 293 295 297 299 302 304 307 310 311 311 311 311 311 312 314 317 318 318 318 319 320 321 321 321 322 323 324 325 326 327 328 328 330 331 332 333 333 334 334 334 335 335 336 337 338 340 341 341 342 342 339 330 321 318 318 321 326 325 318 314
250 251 250 249 250 253 255 254 250 247 247 248 250 255 260 263 267 269 271 275 280 285 288 290 291 293 295 298 300 303 306 308 310 311 311 311 311 312 314 317 318 318 319 320 321 322 322 322 322 324 325 326 327 328 329 329 331 332 333 334 334 335 335 335 336 337 337 337 339 341 344 345 345 345 345 343 337 331 329 328 330 333 334 332 327
253 253 252 251 252 255 256 255 252 248 247 248 251 255 258 262 265 267 270 275 280 284 287 290 291 293 295 298 301 304 307 309 310 310 309 310 312 314 316 318 319 319 320 321 322 322 322 322 324 325 326 328 329 329 331 332 333 335 335 336 336 336 336 337 338 338 338 339 342 344 347 348 347 346 346 344 342 338 336 335 334 336 337 336 331
251 254 254 254 255 254 254 254 253 250 247 248 251 253 256 260 263 266 270 274 278 283 287 289 291 293 295 299 302 305 307 307 307 307 308 311 313 316 317 318 320 321 322 322 322 322 322 324 325 326 328 329 330 331 333 334 336 337 337 338 338 337 338 340 340 340 340 342 345 347 349 350 348 347 347 346 344 341 339 338 336 337 342 340 333
251 254 256 256 256 255 255 255 254 253 248 247 249 252 254 257 260 264 269 273 278 283 286 288 290 292 296 300 303 304 305 305 305 306 309 312 314 317 319 320 321 322 322 321 321 322 324 325 326 328 330 331 332 334 336 337 337 338 339 339 339 340 342 342 341 342 343 345 347 348 350 350 349 348 347 347 346 341 340 342 341 342 347 346 339
252 254 255 255 255 255 256 256 256 254 250 247 249 253 256 258 260 264 268 272 278 283 285 287 289 292 297 300 302 302 302 302 304 306 309 313 316 318 320 321 321 321 321 321 322 323 325 326 328 330 332 333 335 337 338 338 339 340 340 340 341 342 343 342 342 344 346 347 349 349 350 350 350 349 349 349 349 345 341 344 349 351 352 351 351
252 254 254 255 257 257 258 257 255 255 253 249 250 255 260 261 262 264 268 274 279 282 284 286 289 294 297 299 300 300 300 301 303 307 311 314 317 319 320 321 321 320 321 322 323 325 326 328 330 332 334 335 337 339 339 339 340 341 341 342 343 344 343 344 345 347 348 349 349 350 350 351 351 350 350 351 351 350 346 347 353 357 356 358 7
253 256 258 260 262 263 265 265 262 259 257 252 249 256 262 262 262 265 270 275 279 281 283 287 291 295 296 296 297 297 298 301 305 309 313 316 318 319 320 320 319 320 321 323 324 326 327 329 332 334 336 338 339 340 340 341 342 342 343 344 345 345 346 348 349 350 351 350 351 351 352 352 352 352 352 353 354 354 352 352 355 359 1 4 13
256 259 262 265 266 265 269 273 269 261 257 252 250 256 260 259 261 267 271 275 278 281 285 289 292 294 294 293 295 296 298 302 307 310 314 316 317 318 318 318 319 320 322 324 325 327 329 331 334 336 338 340 341 341 342 343 343 344 345 346 347 348 350 351 352 352 352 352 352 353 353 353 353 354 354 355 357 357 357 358 1 3 2 4 11
260 262 264 265 265 265 268 273 271 262 254 251 251 255 258 259 264 269 272 275 279 282 286 290 291 292 292 292 294 297 300 304 308 311 313 315 316 317 317 317 319 320 323 325 327 328 330 332 335 338 339 342 342 343 344 345 346 348 348 349 350 351 352 354 354 354 353 353 353 354 353 353 355 357 358 359 0 1 359 0 4 8 7 5 7
260 263 263 262 263 263 264 267 268 262 253 249 251 254 256 260 265 270 273 276 280 284 287 290 291 290 291 292 294 298 301 304 307 310 313 314 315 316 316 317 319 321 324 326 327 329 331 334 336 338 340 343 343 344 345 347 349 351 352 353 353 354 355 356 356 355 354 354 354 355 355 355 357 1 2 3 3 4 3 1 2 8 12 13 10
259 261 262 262 262 262 261 260 258 253 245 244 248 253 258 263 268 271 274 278 282 286 289 290 290 290 290 291 295 298 301 303 307 309 312 314 314 315 315 317 320 323 325 326 327 329 332 334 336 339 341 343 344 345 347 349 352 354 355 356 356 357 357 357 356 356 356 356 356 356 357 358 360 3 6 7 7 7 6 5 3 4 10 17 19
258 259 260 260 260 259 257 252 247 242 238 241 249 256 262 266 269 272 276 281 285 289 290 291 290 289 289 291 294 297 300 303 306 309 311 312 313 313 314 317 321 324 325 326 327 329 331 334 337 339 342 344 345 346 347 350 353 354 356 358 359 359 359 359 358 358 358 358 358 357 358 360 2 5 7 9 10 9 9 10 10 7 8 13 20
256 256 257 257 256 253 249 245 241 239 239 244 252 259 265 269 273 277 282 285 288 289 290 289 288 287 288 291 294 296 299 302 305 308 310 311 311 312 315 319 323 324 325 325 326 328 331 334 336 340 343 346 346 347 348 349 352 354 355 357 359 359 360 360 360 0 0 1 0 359 359 1 3 6 7 8 10 10 11 14 16 14 11 10 13
251 252 252 251 248 244 242 242 241 242 243 248 256 265 271 276 281 284 285 286 287 288 288 286 285 286 288 291 293 296 299 302 304 307 308 309 310 312 315 320 323 323 323 323 324 327 329 332 336 340 344 346 346 347 348 349 350 352 353 355 356 357 358 359 0 2 2 2 2 1 1 1 2 5 7 8 9 11 12 14 18 19 18 15 12
247 247 247 244 240 239 240 241 243 245 248 254 262 272 279 284 286 285 285 285 286 286 285 283 283 285 288 290 293 296 299 301 303 306 307 308 310 312 316 320 322 321 321 321 322 325 328 332 337 341 343 345 345 346 347 348 349 349 350 351 353 354 355 357 358 0 1 2 2 2 3 3 2 3 6 8 9 10 12 14 17 19 20 21 18
242 243 242 239 237 238 240 242 245 249 252 259 268 276 283 286 286 284 284 284 284 283 282 281 282 284 287 290 293 296 298 301 302 304 306 308 309 311 315 319 320 319 318 319 320 323 327 332 337 341 342 344 345 346 346 346 347 347 347 347 349 350 352 353 355 357 358 360 1 1 3 4 4 3 5 7 9 10 10 12 16 18 18 20 21
239 238 236 235 235 237 239 242 246 251 255 261 269 277 284 286 285 283 283 283 282 281 280 279 281 284 287 290 293 295 298 300 302 303 305 306 307 310 314 317 317 316 316 316 318 321 326 332 337 340 342 344 345 345 345 345 345 345 344 344 344 345 347 349 351 353 355 357 358 359 1 3 4 4 5 6 8 10 10 10 13 16 17 18 20
236 234 232 232 233 235 238 242 247 252 258 263 269 276 282 285 283 282 281 281 279 279 278 279 281 283 286 288 292 295 297 299 300 301 302 303 305 308 312 315 314 313 313 313 315 318 324 330 335 338 340 342 342 343 343 343 343 343 342 341 341 341 343 345 347 349 351 352 354 357 358 360 2 3 4 5 7 10 11 11 10 12 15 17 19
233 232 230 230 233 235 238 242 248 253 257 262 268 274 280 283 282 281 279 279 278 277 278 279 280 282 285 288 291 294 297 298 298 299 300 301 303 306 310 312 311 310 309 309 311 316 322 328 333 335 337 338 340 340 340 340 341 341 341 340 339 338 339 340 342 345 347 349 351 353 355 357 358 360 1 4 5 6 9 11 12 11 12 14 16
231 231 230 230 232 235 238 242 247 251 255 260 266 273 278 280 280 279 278 277 276 277 277 278 280 281 284 286 290 293 295 296 296 297 298 299 301 304 307 308 307 306 305 306 308 312 318 324 329 332 333 335 336 337 337 338 339 340 339 338 338 337 336 337 338 340 343 345 347 349 350 353 355 356 357 359 2 3 5 7 10 11 11 12 13
230 229 229 230 231 233 237 241 245 250 254 259 264 270 275 277 277 276 275 274 275 276 277 277 278 280 282 285 287 290 293 294 294 295 296 298 300 302 304 305 304 302 301 302 305 309 315 320 325 328 330 332 333 333 335 336 337 338 338 337 337 336 335 335 335 336 338 340 343 344 346 348 350 352 353 354 356 359 1 2 5 7 10 11 11
232 228 228 229 231 233 236 241 246 250 254 258 262 266 271 274 274 274 274 274 274 275 275 275 276 277 279 282 284 288 291 292 292 293 295 296 298 300 301 301 301 299 298 298 302 306 310 315 320 323 326 328 330 330 332 334 336 336 337 337 337 336 335 334 333 333 334 335 337 339 341 343 344 347 349 351 352 353 356 358 359 1 4 7 9
240 237 233 231 230 233 236 240 244 248 252 256 260 264 268 271 272 272 273 273 273 273 273 274 275 275 277 279 282 285 288 289 289 291 293 294 295 297 298 298 297 296 295 296 298 302 306 310 315 319 323 325 327 328 329 331 333 334 335 335 336 336 335 333 331 331 331 331 332 333 336 338 340 341 343 346 348 349 350 352 354 356 358 360 2
245 245 243 236 229 229 234 239 242 247 252 255 257 261 265 267 269 270 271 270 269 270 271 272 272 274 275 277 279 282 283 285 286 289 290 291 292 294 295 295 294 293 292 293 295 299 303 307 311 315 319 322 323 324 326 329 331 331 332 333 334 334 333 332 329 328 328 328 328 329 330 332 334 336 337 340 343 345 346 347 349 350 352 353 355
242 242 243 239 232 231 237 242 245 249 252 254 255 258 262 265 268 269 268 267 266 267 268 269 270 271 272 273 276 277 279 281 283 285 287 288 290 291 292 292 290 289 289 291 294 297 300 303 307 312 316 318 320 321 323 326 327 328 329 330 331 332 332 331 330 328 327 327 327 327 327 327 328 329 331 334 336 339 341 342 344 345 347 348 349
245 241 240 239 239 241 244 246 246 248 250 252 255 257 259 263 266 266 265 265 264 264 265 266 267 267 268 269 271 273 275 278 280 282 284 286 287 289 289 288 287 287 288 289 291 294 297 301 305 309 313 315 317 319 321 322 323 324 326 328 329 329 329 330 330 330 329 327 326 326 325 324 323 324 326 328 330 332 335 337 338 340 341 343 344
252 249 243 239 240 243 245 245 244 246 249 252 255 256 258 261 262 263 263 264 264 264 264 265 265 265 266 266 267 269 272 275 277 279 281 283 284 285 285 285 286 286 287 288 290 293 296 300 303 306 309 312 314 316 318 319 320 321 324 326 327 327 327 327 328 330 330 328 327 325 324 323 321 320 321 323 324 326 327 329 331 333 334 335 337
255 253 246 239 238 240 242 242 242 245 248 251 253 254 257 259 261 263 265 266 266 266 266 267 267 266 264 263 264 267 270 272 274 276 278 279 280 281 282 283 284 285 286 287 289 292 295 297 300 304 307 310 312 314 315 316 317 319 322 323 324 324 324 325 326 327 327 327 326 324 323 321 320 318 318 318 318 319 320 321 322 324 325 327 328
258 255 245 237 235 238 239 240 241 243 246 249 250 252 255 258 260 263 265 266 266 267 268 268 269 266 263 261 262 265 268 270 271 273 275 276 276 277 279 281 283 285 285 287 289 291 293 296 300 304 307 308 310 311 312 314 315 317 319 321 322 322 322 322 322 322 323 323 322 322 321 320 319 317 316 314 313 313 314 315 316 316 318 319 320
262 260 246 233 229 232 237 239 240 242 244 247 249 252 255 258 260 261 263 263 264 265 266 267 267 264 261 260 261 264 267 268 269 270 271 271 273 275 277 280 282 283 284 286 288 290 293 297 301 303 305 306 307 309 310 312 314 315 317 318 319 319 319 319 319 319 319 319 319 318 318 318 318 316 314 313 311 310 309 309 309 310 310 311 312
263 268 256 237 229 231 237 240 240 242 244 246 249 252 256 258 258 258 259 260 260 261 263 264 263 260 258 257 259 261 263 265 266 267 268 268 270 273 275 278 279 281 282 285 287 290 293 297 299 300 302 303 305 307 308 310 312 314 315 316 316 317 317 317 317 316 316 316 315 315 315 316 316 315 313 312 310 308 306 305 305 305 305 305 306
263 271 263 243 231 230 236 241 242 244 245 247 249 252 255 256 256 256 255 255 255 256 258 258 257 254 253 254 256 258 260 262 264 264 265 266 268 271 273 275 278 280 281 284 286 289 292 294 296 297 300 302 303 305 307 309 311 312 313 313 314 314 314 314 314 314 313 313 312 312 313 313 313 313 311 310 308 306 305 303 302 301 301 301 301
261 266 258 241 230 231 239 244 245 245 246 247 249 251 253 255 254 253 253 253 253 253 253 252 250 249 249 251 254 256 258 259 260 261 262 264 266 268 271 274 276 278 281 283 285 287 289 291 293 296 298 300 302 304 306 307 309 309 309 310 310 311 311 311 311 311 311 310 310 311 311 312 312 311 310 309 307 306 304 302 301 299 298 297 297
255 258 254 245 242 245 249 250 250 250 249 250 251 253 255 256 256 254 254 253 252 251 250 248 246 246 247 250 253 254 256 258 260 261 263 266 267 269 272 274 276 278 281 282 284 286 288 291 293 295 297 298 300 302 303 304 305 305 306 306 308 308 308 309 309 309 309 309 309 309 310 310 310 310 309 308 307 306 304 303 301 300 298 296 295
251 253 255 256 258 260 259 257 256 257 258 257 255 256 257 258 257 255 255 254 254 253 251 248 245 245 248 251 253 255 257 259 261 263 265 267 268 270 272 274 276 278 280 282 284 287 289 291 293 294 296 297 299 300 301 302 302 303 303 304 305 306 306 306 307 307 308 308 309 309 309 308 308 308 308 307 306 305 304 303 302 300 299 297 295
249 251 255 258 260 261 260 257 256 260 262 261 260 260 262 262 261 260 259 259 258 256 252 247 245 246 249 251 253 254 256 258 260 262 264 266 268 270 272 274 275 278 280 283 285 287 289 290 292 294 295 296 297 298 299 300 301 301 302 303 304 305 305 305 306 306 307 308 308 308 307 307 307 307 307 306 305 305 304 303 302 300 299 297 296
245 247 249 252 254 254 253 251 253 257 259 259 260 262 265 266 265 264 263 262 259 254 247 245 247 249 251 252 252 253 255 257 260 262 264 266 268 270 272 274 276 278 280 283 285 287 288 290 292 293 295 296 297 298 299 299 299 301 302 303 304 304 305 305 306 307 307 307 307 307 306 306 306 306 306 305 305 304 303 302 301 299 298 297 296
244 245 246 246 246 246 246 249 254 257 257 256 258 261 263 263 263 262 261 258 254 249 247 248 250 251 251 252 252 254 256 258 260 262 264 266 268 270 272 274 276 278 281 283 285 287 288 290 291 293 294 295 296 296 297 298 299 301 302 302 303 304 305 305 306 306 306 306 306 306 306 306 306 306 306 305 304 303 302 301 300 299 298 297 296
Height
5781 5782 5782 5783 5784 5785 5786 5786 5787 5788 5789 5790 5790 5791 5791 5791 5792 5792 5792 5793 5794 5794 5794 5795 5795 5795 5794 5794 5793 5792 5791 5790 5789 5787 5786 5784 5782 5780 5777 5775 5773 5770 5768 5765 5763 5760 5757 5754 5752 5749 5746 5744 5741 5738 5736 5733 5730 5727 5724 5721 5717 5715 5712 5708 5706 5702 5696 5693 5691 5688 5684 5682 5679 5677 5675 5672 5668 5665 5662 5659 5657 5656 5656 5656 5656
5780 5780 5781 5782 5783 5783 5784 5785 5786 5787 5788 5789 5789 5790 5790 5790 5790 5790 5791 5791 5792 5792 5792 5793 5793 5792 5792 5791 5790 5789 5788 5787 5786 5784 5782 5780 5778 5776 5774 5771 5769 5767 5764 5761 5759 5756 5753 5750 5748 5745 5743 5740 5737 5734 5731 5728 5725 5721 5718 5715 5711 5708 5705 5702 5698 5695 5691 5686 5683 5680 5676 5673 5670 5667 5665 5662 5659 5656 5653 5650 5647 5645 5644 5644 5645
5779 5779 5780 5781 5781 5782 5782 5783 5784 5785 5786 5787 5788 5788 5788 5788 5788 5788 5789 5789 5790 5790 5790 5790 5790 5790 5789 5788 5787 5786 5785 5784 5782 5780 5779 5777 5775 5772 5770 5768 5765 5763 5760 5757 5755 5752 5749 5747 5744 5742 5739 5736 5733 5730 5727 5723 5720 5716 5712 5709 5705 5701 5697 5694 5691 5687 5684 5679 5674 5672 5669 5664 5660 5657 5655 5652 5648 5646 5644 5641 5638 5635 5633 5633 5632
5778 5778 5779 5779 5780 5780 5781 5782 5782 5783 5785 5786 5786 5786 5786 5786 5786 5786 5787 5787 5787 5788 5788 5788 5787 5787 5786 5785 5784 5783 5782 5780 5779 5777 5775 5773 5771 5769 5766 5764 5762 5759 5756 5754 5751 5748 5746 5743 5741 5738 5735 5733 5729 5726 5723 5719 5715 5711 5707 5703 5699 5695 5691 5686 5683 5679 5676 5672 5667 5662 5659 5656 5651 5647 5645 5643 5639 5635 5633 5630 5628 5625 5623 5622 5620
5776 5777 5777 5778 5778 5779 5779 5780 5781 5782 5783 5784 5784 5784 5784 5784 5784 5784 5785 5785 5785 5785 5785 5785 5784 5783 5782 5782 5781 5780 5778 5777 5776 5774 5772 5770 5767 5765 5763 5760 5758 5755 5753 5750 5748 5745 5743 5740 5738 5735 5732 5729 5725 5722 5718 5714 5710 5706 5702 5698 5693 5689 5685 5680 5676 5672 5669 5665 5660 5655 5651 5648 5644 5638 5635 5633 5630 5627 5624 5621 5617 5614 5614 5612 5609
5774 5775 5775 5776 5776 5777 5777 5778 5779 5780 5781 5782 5782 5782 5782 5782 5782 5782 5782 5782 5782 5782 5782 5782 5781 5780 5779 5779 5778 5777 5775 5774 5772 5770 5768 5766 5764 5762 5759 5757 5754 5752 5749 5747 5744 5742 5740 5737 5734 5731 5728 5724 5721 5717 5713 5709 5705 5701 5696 5692 5688 5684 5680 5675 5671 5667 5662 5658 5654 5650 5645 5641 5637 5633 5628 5624 5621 5618 5617 5614 5609 5604 5603 5602 5598
5772 5773 5773 5774 5774 5774 5775 5776 5777 5778 5779 5779 5779 5779 5779 5779 5779 5779 5779 5780 5780 5780 5779 5779 5778 5777 5777 5776 5775 5774 5772 5771 5769 5767 5765 5763 5760 5758 5756 5753 5751 5748 5746 5744 5741 5739 5736 5734 5730 5727 5724 5720 5716 5712 5709 5705 5700 5696 5692 5687 5683 5679 5675 5670 5666 5661 5657 5653 5649 5644 5640 5636 5631 5626 5621 5616 5612 5608 5605 5605 5602 5596 5593 5590 5587
5770 5771 5771 5772 5772 5773 5773 5774 5775 5776 5776 5776 5776 5776 5776 5776 5777 5777 5777 5777 5777 5777 5777 5776 5776 5775 5774 5774 5772 5771 5769 5768 5766 5764 5761 5759 5757 5755 5752 5750 5748 5746 5743 5741 5738 5736 5733 5730 5727 5723 5720 5716 5712 5708 5704 5700 5695 5691 5687 5683 5678 5674 5670 5665 5661 5657 5652 5648 5644 5639 5635 5631 5626 5621 5615 5610 5606 5601 5596 5594 5592 5589 5586 5581 5576
5768 5769 5769 5770 5770 5771 5772 5772 5772 5773 5773 5773 5773 5773 5773 5774 5774 5774 5775 5775 5775 5775 5775 5774 5774 5773 5772 5771 5770 5768 5766 5764 5762 5760 5758 5756 5753 5751 5749 5747 5745 5743 5740 5738 5735 5732 5729 5726 5723 5719 5715 5711 5708 5704 5699 5695 5691 5687 5682 5678 5674 5669 5665 5661 5657 5652 5648 5644 5640 5635 5630 5625 5621 5615 5609 5603 5598 5594 5590 5586 5583 5581 5579 5575 5569
5766 5767 5767 5768 5769 5769 5769 5770 5770 5770 5771 5771 5771 5771 5771 5771 5772 5772 5772 5773 5773 5773 5772 5772 5771 5770 5769 5768 5766 5765 5763 5761 5759 5756 5754 5752 5750 5748 5746 5744 5742 5740 5737 5734 5732 5728 5725 5722 5719 5715 5711 5707 5703 5699 5694 5690 5686 5682 5677 5673 5669 5665 5661 5657 5653 5649 5644 5640 5635 5630 5626 5620 5615 5609 5603 5596 5591 5587 5583 5581 5579 5576 5573 5570 5565
5763 5764 5765 5766 5766 5767 5767 5768 5768 5768 5768 5768 5768 5768 5769 5769 5770 5770 5770 5771 5771 5771 5770 5770 5769 5767 5766 5765 5763 5761 5759 5757 5755 5753 5751 5749 5747 5745 5743 5741 5739 5737 5734 5731 5728 5725 5722 5718 5714 5711 5707 5703 5698 5694 5690 5685 5681 5677 5672 5668 5664 5660 5657 5654 5649 5645 5641 5636 5631 5626 5621 5615 5610 5604 5598 5591 5586 5582 5579 5576 5573 5570 5566 5563 5561
5761 5762 5763 5764 5764 5764 5765 5766 5766 5766 5766 5766 5766 5766 5766 5767 5767 5768 5768 5768 5768 5768 5768 5767 5766 5764 5763 5761 5759 5757 5755 5753 5752 5750 5748 5746 5744 5742 5740 5738 5736 5733 5730 5728 5724 5721 5718 5714 5711 5707 5703 5699 5694 5690 5686 5681 5677 5673 5669 5665 5661 5657 5653 5650 5646 5642 5637 5632 5627 5622 5617 5611 5605 5599 5593 5587 5583 5579 5576 5572 5567 5564 5560 5556 5554
5759 5760 5760 5761 5761 5762 5762 5763 5763 5763 5763 5763 5763 5764 5764 5765 5765 5765 5765 5766 5766 5765 5765 5764 5762 5761 5759 5758 5756 5754 5752 5750 5748 5746 5745 5743 5741 5739 5737 5735 5733 5730 5727 5724 5721 5718 5715 5711 5707 5703 5699 5695 5691 5686 5682 5678 5674 5670 5666 5662 5658 5655 5651 5647 5643 5638 5634 5629 5624 5618 5612 5606 5600 5594 5588 5583 5580 5576 5573 5569 5563 5558 5554 5550 5547
5756 5757 5758 5758 5759 5759 5760 5760 5760 5760 5760 5761 5761 5762 5762 5762 5762 5762 5763 5763 5763 5762 5761 5760 5759 5757 5756 5754 5752 5750 5749 5747 5745 5744 5742 5740 5739 5737 5735 5732 5730 5727 5724 5721 5718 5715 5712 5708 5704 5700 5696 5692 5688 5684 5680 5676 5672 5668 5664 5660 5657 5653 5649 5645 5641 5636 5631 5626 5621 5615 5609 5602 5596 5591 5585 5580 5576 5572 5569 5564 5558 5553 5548 5544 5539
5754 5754 5755 5756 5756 5757 5757 5757 5757 5757 5758 5758 5759 5759 5759 5759 5760 5760 5760 5760 5760 5759 5758 5757 5755 5754 5752 5750 5749 5747 5746 5744 5743 5741 5740 5738 5736 5734 5732 5729 5727 5724 5721 5718 5715 5712 5709 5705 5701 5697 5693 5689 5686 5682 5678 5674 5670 5666 5662 5659 5655 5651 5647 5643 5638 5634 5629 5624 5618 5613 5607 5600 5594 5589 5583 5578 5574 5570 5566 5561 5555 5550 5545 5539 5534
5751 5752 5752 5753 5754 5754 5754 5754 5754 5753 5754 5755 5755 5756 5756 5756 5756 5757 5757 5757 5756 5756 5754 5753 5752 5750 5749 5747 5745 5744 5743 5741 5740 5739 5737 5735 5733 5731 5729 5726 5724 5721 5718 5716 5713 5710 5706 5702 5699 5695 5691 5687 5684 5680 5676 5672 5669 5665 5661 5657 5653 5649 5645 5641 5636 5632 5627 5622 5616 5611 5605 5599 5594 5588 5583 5578 5573 5569 5565 5560 5554 5549 5544 5537 5532
5749 5749 5749 5750 5751 5751 5751 5751 5751 5750 5751 5752 5752 5752 5753 5753 5753 5753 5754 5753 5753 5752 5751 5749 5748 5747 5745 5744 5742 5741 5740 5739 5738 5736 5734 5732 5730 5728 5726 5723 5721 5718 5716 5713 5710 5707 5704 5700 5696 5693 5689 5685 5682 5678 5674 5671 5667 5664 5660 5657 5653 5648 5644 5639 5635 5631 5626 5621 5615 5610 5605 5599 5594 5588 5583 5577 5572 5568 5564 5560 5554 5548 5542 5537 5531
5745 5745 5746 5746 5747 5747 5748 5748 5747 5747 5747 5747 5748 5749 5749 5750 5750 5750 5750 5750 5749 5748 5747 5746 5745 5743 5742 5741 5739 5738 5737 5736 5735 5733 5732 5730 5728 5725 5723 5721 5718 5716 5714 5711 5708 5704 5701 5697 5694 5691 5687 5684 5680 5677 5673 5670 5666 5663 5660 5656 5652 5648 5644 5640 5635 5631 5626 5621 5616 5611 5606 5600 5595 5589 5583 5577 5572 5567 5563 5559 5553 5547 5541 5536 5531
5741 5741 5742 5743 5743 5743 5743 5743 5743 5743 5743 5743 5744 5745 5746 5747 5747 5747 5747 5746 5746 5745 5744 5742 5741 5740 5739 5738 5737 5736 5735 5733 5732 5730 5729 5727 5725 5723 5720 5718 5716 5714 5711 5708 5705 5702 5698 5695 5692 5689 5685 5682 5679 5675 5672 5669 5666 5662 5659 5655 5651 5647 5643 5639 5635 5630 5625 5621 5617 5612 5606 5601 5595 5590 5584 5578 5572 5567 5562 5558 5553 5547 5541 5535 5530
5737 5738 5738 5739 5740 5739 5739 5740 5739 5738 5737 5737 5740 5742 5743 5743 5743 5744 5743 5743 5742 5741 5740 5739 5738 5737 5736 5735 5734 5733 5732 5731 5729 5727 5726 5724 5722 5720 5718 5716 5714 5711 5709 5706 5703 5699 5696 5693 5690 5687 5683 5680 5677 5674 5671 5668 5665 5661 5657 5653 5650 5646 5642 5637 5632 5628 5624 5620 5616 5611 5606 5601 5596 5590 5585 5579 5573 5567 5562 5557 5552 5546 5541 5536 5530
5734 5735 5735 5736 5736 5736 5736 5736 5736 5734 5733 5734 5737 5739 5739 5740 5740 5740 5740 5739 5739 5738 5737 5736 5735 5734 5734 5733 5732 5731 5729 5728 5726 5725 5723 5721 5719 5717 5716 5714 5711 5709 5706 5703 5700 5697 5694 5691 5688 5685 5682 5679 5676 5673 5670 5667 5663 5660 5656 5652 5648 5644 5640 5636 5631 5627 5623 5619 5615 5611 5607 5602 5597 5591 5585 5579 5573 5567 5562 5558 5552 5547 5542 5537 5532
5730 5731 5732 5732 5733 5733 5733 5734 5733 5732 5732 5733 5735 5736 5736 5737 5737 5737 5737 5736 5735 5735 5734 5733 5732 5732 5731 5730 5729 5727 5726 5725 5723 5722 5720 5719 5717 5715 5713 5711 5709 5706 5703 5700 5697 5694 5691 5689 5686 5683 5680 5678 5675 5672 5669 5666 5662 5658 5654 5651 5647 5643 5639 5635 5631 5627 5623 5619 5615 5611 5607 5603 5598 5592 5586 5579 5573 5567 5562 5557 5553 5548 5543 5538 5533
5727 5727 5728 5729 5729 5730 5731 5731 5731 5730 5731 5731 5732 5733 5733 5734 5734 5734 5733 5733 5732 5731 5731 5730 5729 5729 5728 5727 5726 5724 5723 5722 5720 5719 5717 5716 5714 5712 5711 5709 5706 5703 5700 5697 5695 5692 5689 5687 5684 5682 5679 5677 5674 5671 5668 5665 5661 5658 5654 5650 5646 5642 5638 5634 5631 5627 5623 5619 5615 5611 5608 5603 5598 5592 5586 5580 5573 5567 5561 5557 5553 5550 5546 5541 5536
5723 5724 5725 5726 5726 5727 5727 5728 5728 5728 5728 5728 5729 5730 5730 5731 5730 5730 5730 5729 5729 5728 5728 5727 5726 5726 5725 5724 5723 5721 5720 5719 5718 5716 5715 5713 5711 5710 5708 5706 5703 5700 5698 5695 5693 5690 5688 5685 5683 5681 5678 5675 5673 5670 5667 5664 5660 5657 5654 5650 5646 5642 5638 5635 5631 5628 5624 5619 5615 5611 5607 5603 5598 5593 5587 5581 5575 5570 5565 5560 5555 5552 5548 5545 5540
5720 5721 5722 5722 5723 5723 5724 5724 5725 5725 5725 5726 5726 5727 5728 5728 5727 5727 5727 5726 5726 5725 5724 5724 5723 5722 5722 5721 5720 5718 5717 5716 5715 5713 5712 5710 5709 5707 5705 5703 5700 5698 5695 5693 5691 5688 5686 5684 5682 5679 5677 5674 5671 5669 5666 5663 5660 5657 5653 5650 5646 5643 5639 5636 5632 5628 5624 5620 5616 5611 5607 5603 5598 5593 5588 5583 5579 5576 5572 5567 5561 5555 5551 5547 5543
5717 5718 5718 5719 5720 5720 5721 5721 5722 5722 5723 5724 5724 5724 5725 5725 5724 5724 5723 5723 5722 5722 5721 5721 5720 5719 5718 5717 5717 5715 5714 5713 5712 5710 5709 5708 5706 5704 5702 5700 5697 5695 5693 5691 5689 5687 5685 5682 5680 5678 5675 5673 5670 5667 5664 5661 5658 5656 5653 5649 5646 5643 5640 5637 5633 5629 5625 5620 5616 5612 5607 5603 5599 5594 5590 5586 5583 5579 5575 5570 5565 5559 5554 5550 5546
5714 5714 5715 5716 5717 5717 5718 5719 5719 5720 5721 5721 5722 5722 5722 5721 5721 5721 5720 5719 5719 5719 5718 5718 5717 5716 5715 5714 5713 5712 5711 5710 5709 5708 5706 5705 5703 5701 5699 5697 5695 5693 5691 5689 5687 5685 5683 5681 5679 5677 5674 5672 5669 5666 5663 5660 5657 5655 5652 5649 5646 5643 5640 5637 5633 5629 5625 5621 5617 5613 5608 5603 5599 5596 5593 5589 5584 5580 5576 5572 5568 5563 5558 5554 5550
5710 5711 5712 5713 5714 5714 5715 5716 5717 5717 5718 5718 5718 5719 5719 5718 5718 5717 5717 5716 5716 5715 5715 5714 5714 5713 5712 5711 5710 5709 5708 5707 5706 5705 5703 5702 5700 5699 5697 5694 5692 5691 5689 5687 5685 5683 5682 5679 5677 5675 5673 5670 5668 5665 5662 5659 5656 5654 5651 5648 5646 5643 5639 5636 5633 5629 5626 5622 5618 5614 5610 5605 5601 5597 5594 5590 5586 5582 5578 5574 5569 5565 5562 5558 5555
5706 5707 5709 5710 5711 5712 5713 5713 5714 5714 5715 5715 5715 5715 5715 5715 5714 5714 5714 5713 5713 5712 5712 5711 5711 5710 5709 5708 5707 5706 5705 5704 5703 5702 5701 5699 5697 5696 5694 5692 5690 5688 5687 5685 5683 5681 5680 5678 5675 5673 5671 5669 5666 5663 5661 5658 5656 5653 5651 5648 5645 5643 5640 5637 5634 5630 5627 5624 5620 5616 5612 5608 5603 5599 5595 5591 5588 5584 5580 5576 5572 5568 5564 5561 5557
5703 5704 5706 5707 5708 5709 5710 5710 5711 5711 5712 5712 5712 5712 5712 5712 5711 5711 5710 5710 5709 5709 5709 5708 5707 5707 5706 5705 5704 5703 5702 5701 5700 5699 5697 5696 5695 5693 5691 5689 5688 5686 5684 5683 5681 5680 5678 5676 5674 5672 5670 5667 5665 5662 5660 5658 5655 5652 5650 5648 5645 5642 5640 5637 5634 5631 5628 5624 5621 5617 5613 5609 5605 5601 5597 5593 5589 5586 5582 5578 5574 5571 5568 5564 5560
5699 5701 5702 5703 5704 5705 5706 5707 5708 5708 5708 5709 5709 5709 5709 5708 5708 5707 5707 5706 5706 5706 5705 5705 5704 5704 5703 5702 5701 5700 5699 5698 5697 5696 5694 5693 5692 5690 5688 5686 5685 5684 5682 5681 5679 5678 5676 5674 5672 5670 5668 5666 5664 5662 5659 5657 5654 5652 5649 5647 5644 5642 5639 5637 5634 5631 5628 5625 5621 5618 5614 5611 5607 5603 5599 5595 5591 5587 5584 5580 5576 5573 5570 5567 5563
5696 5697 5698 5699 5700 5702 5703 5703 5704 5705 5705 5705 5705 5705 5705 5705 5704 5704 5703 5703 5702 5702 5702 5702 5701 5700 5700 5699 5698 5697 5696 5695 5693 5692 5691 5690 5689 5687 5685 5684 5683 5681 5680 5679 5677 5676 5674 5672 5670 5669 5667 5665 5663 5661 5658 5656 5654 5651 5649 5646 5643 5641 5638 5636 5633 5631 5628 5625 5622 5618 5615 5611 5608 5604 5601 5597 5593 5589 5586 5583 5579 5576 5572 5569 5566
5692 5693 5694 5696 5697 5698 5699 5700 5700 5701 5701 5701 5701 5701 5701 5701 5700 5700 5700 5699 5699 5699 5698 5698 5697 5697 5696 5695 5694 5693 5692 5691 5691 5690 5688 5687 5686 5684 5683 5681 5680 5679 5678 5676 5675 5673 5672 5670 5669 5667 5665 5663 5661 5659 5657 5655 5652 5650 5647 5645 5642 5640 5637 5635 5632 5629 5627 5624 5621 5618 5615 5612 5609 5605 5602 5598 5595 5591 5588 5584 5581 5578 5575 5572 5569
5687 5689 5690 5691 5692 5694 5694 5695 5696 5696 5697 5697 5697 5697 5697 5697 5697 5696 5696 5696 5695 5695 5695 5694 5694 5693 5693 5692 5691 5690 5689 5688 5688 5687 5686 5685 5683 5682 5680 5679 5678 5676 5675 5674 5672 5671 5669 5668 5667 5665 5663 5662 5660 5658 5655 5653 5651 5648 5646 5643 5641 5638 5636 5633 5631 5628 5625 5623 5620 5617 5615 5612 5609 5606 5603 5599 5596 5593 5589 5586 5583 5580 5577 5574 5571
5683 5684 5686 5687 5688 5689 5690 5691 5692 5692 5693 5693 5693 5693 5693 5693 5693 5692 5692 5692 5692 5691 5691 5691 5690 5689 5689 5688 5687 5687 5686 5685 5684 5683 5683 5682 5680 5679 5677 5676 5675 5674 5673 5671 5670 5668 5667 5666 5665 5663 5662 5660 5658 5656 5654 5651 5649 5647 5644 5642 5639 5637 5634 5632 5629 5627 5624 5622 5619 5617 5614 5611 5608 5606 5603 5600 5597 5594 5591 5588 5585 5581 5579 5576 5573
5680 5680 5681 5682 5683 5684 5686 5686 5687 5688 5688 5689 5689 5689 5689 5689 5688 5688 5688 5688 5688 5687 5687 5687 5686 5685 5685 5684 5684 5683 5682 5682 5681 5680 5679 5678 5677 5676 5674 5673 5672 5671 5670 5669 5667 5666 5664 5663 5662 5661 5659 5657 5656 5654 5651 5649 5647 5644 5642 5640 5637 5635 5632 5630 5628 5625 5623 5620 5618 5615 5613 5611 5608 5605 5602 5600 5597 5594 5591 5588 5586 5583 5579 5577 5574
5675 5676 5677 5678 5678 5679 5681 5682 5682 5683 5684 5684 5685 5685 5685 5684 5684 5684 5684 5684 5683 5683 5683 5682 5682 5681 5681 5680 5680 5679 5679 5678 5677 5677 5676 5675 5674 5672 5671 5670 5669 5668 5667 5666 5664 5663 5662 5660 5659 5658 5657 5655 5653 5651 5649 5647 5645 5642 5640 5638 5635 5633 5631 5628 5626 5624 5621 5619 5616 5614 5611 5609 5607 5604 5602 5599 5597 5594 5591 5588 5586 5583 5580 5577 5575
5669 5670 5672 5673 5674 5675 5676 5677 5678 5679 5680 5680 5680 5680 5680 5680 5680 5680 5679 5679 5679 5679 5678 5678 5677 5677 5676 5676 5676 5675 5675 5674 5674 5673 5672 5671 5670 5669 5668 5667 5666 5665 5664 5663 5661 5660 5659 5658 5657 5655 5654 5652 5650 5648 5646 5644 5642 5640 5638 5635 5633 5631 5628 5626 5624 5621 5619 5617 5615 5612 5610 5607 5605 5603 5600 5598 5596 5593 5591 5589 5586 5583 5581 5578 5576
5665 5665 5666 5668 5669 5670 5671 5671 5673 5674 5675 5675 5676 5676 5676 5676 5676 5675 5675 5675 5674 5674 5674 5673 5673 5672 5672 5672 5671 5671 5671 5670 5670 5669 5668 5668 5667 5666 5665 5664 5663 5662 5661 5660 5658 5657 5656 5654 5653 5652 5650 5649 5647 5645 5643 5641 5639 5637 5635 5633 5630 5628 5626 5623 5621 5619 5617 5614 5612 5610 5607 5605 5603 5600 5598 5596 5594 5592 5590 5588 5586 5583 5581 5578 5576
5662 5661 5662 5663 5663 5665 5666 5667 5668 5669 5670 5670 5671 5671 5671 5671 5671 5671 5671 5671 5670 5670 5670 5669 5668 5668 5668 5667 5667 5667 5667 5666 5666 5665 5664 5664 5663 5662 5661 5660 5660 5659 5657 5656 5655 5654 5652 5651 5650 5649 5647 5645 5644 5642 5640 5638 5636 5634 5632 5630 5627 5625 5623 5620 5618 5616 5614 5611 5609 5607 5605 5603 5600 5598 5596 5594 5592 5590 5588 5586 5584 5582 5580 5578 5575
5657 5657 5657 5657 5658 5659 5660 5661 5663 5664 5665 5665 5666 5666 5667 5667 5667 5667 5667 5667 5666 5666 5666 5665 5665 5664 5664 5663 5663 5663 5663 5662 5662 5661 5661 5660 5659 5659 5658 5657 5656 5655 5654 5653 5652 5650 5649 5648 5647 5645 5644 5642 5640 5638 5636 5635 5633 5631 5629 5626 5624 5622 5619 5617 5615 5613 5611 5608 5606 5604 5602 5600 5598 5596 5593 5591 5589 5587 5585 5584 5582 5580 5578 5576 5574
5652 5651 5651 5650 5651 5653 5654 5656 5658 5659 5660 5660 5661 5662 5662 5662 5662 5663 5663 5663 5662 5662 5662 5661 5661 5660 5660 5659 5659 5659 5658 5658 5658 5657 5657 5656 5655 5655 5654 5653 5652 5651 5650 5649 5648 5647 5646 5644 5643 5642 5640 5638 5636 5634 5633 5631 5629 5627 5625 5623 5620 5618 5616 5614 5612 5610 5608 5606 5603 5601 5599 5596 5594 5592 5590 5588 5586 5584 5582 5580 5579 5577 5575 5574 5572
5647 5647 5646 5644 5644 5646 5649 5651 5652 5654 5655 5655 5656 5657 5657 5658 5658 5658 5658 5657 5657 5657 5656 5656 5656 5656 5655 5655 5655 5655 5654 5654 5654 5653 5653 5652 5651 5651 5650 5649 5648 5647 5646 5645 5644 5643 5642 5640 5639 5637 5636 5634 5632 5631 5628 5627 5625 5623 5621 5619 5616 5614 5612 5610 5608 5606 5604 5602 5600 5597 5595 5593 5591 5588 5586 5585 5582 5580 5578 5577 5575 5573 5571 5570 5568
5641 5642 5643 5642 5641 5643 5644 5646 5648 5650 5650 5649 5650 5651 5651 5652 5652 5652 5652 5652 5651 5651 5651 5650 5650 5650 5650 5651 5651 5651 5650 5650 5649 5649 5648 5648 5647 5646 5646 5645 5644 5643 5642 5641 5640 5639 5637 5636 5635 5633 5632 5630 5628 5626 5624 5622 5621 5619 5616 5614 5612 5610 5608 5606 5604 5602 5600 5598 5596 5594 5591 5589 5587 5584 5582 5580 5578 5576 5574 5572 5571 5569 5567 5565 5564
5637 5638 5637 5637 5637 5639 5640 5642 5644 5644 5644 5644 5644 5645 5645 5646 5646 5646 5645 5645 5645 5645 5644 5644 5644 5645 5645 5645 5646 5645 5645 5645 5645 5644 5644 5643 5642 5642 5641 5640 5640 5639 5638 5637 5635 5634 5633 5632 5630 5629 5627 5626 5624 5622 5620 5618 5616 5614 5612 5610 5608 5606 5604 5601 5599 5597 5595 5593 5591 5589 5587 5585 5582 5580 5578 5576 5574 5572 5570 5568 5566 5564 5562 5560 5559
5633 5633 5632 5632 5633 5635 5637 5638 5639 5639 5639 5639 5639 5639 5639 5639 5639 5639 5639 5639 5639 5638 5638 5637 5638 5639 5640 5640 5640 5640 5640 5640 5640 5640 5639 5638 5638 5637 5636 5636 5635 5634 5633 5632 5631 5630 5629 5627 5626 5624 5623 5621 5619 5618 5616 5614 5612 5610 5607 5605 5603 5602 5599 5597 5595 5593 5591 5589 5587 5584 5582 5580 5577 5575 5573 5571 5569 5567 5565 5563 5561 5559 5557 5555 5554
5629 5629 5629 5630 5632 5633 5634 5634 5635 5635 5635 5635 5635 5635 5634 5634 5634 5633 5633 5633 5632 5631 5631 5632 5633 5634 5634 5634 5635 5635 5635 5635 5635 5634 5634 5633 5633 5632 5631 5631 5630 5629 5628 5627 5626 5625 5624 5622 5621 5619 5618 5616 5615 5613 5611 5610 5608 5605 5603 5601 5599 5597 5594 5592 5590 5587 5585 5583 5581 5579 5577 5574 5572 5569 5567 5565 5563 5561 5559 5557 5555 5553 5551 5550 5548
5624 5624 5625 5626 5627 5628 5629 5630 5630 5631 5631 5630 5630 5629 5629 5628 5628 5628 5628 5627 5627 5627 5628 5629 5629 5629 5629 5629 5629 5629 5629 5629 5629 5629 5628 5628 5628 5627 5626 5626 5625 5624 5623 5622 5621 5620 5618 5617 5616 5614 5613 5611 5610 5608 5606 5604 5602 5600 5598 5596 5594 5592 5589 5587 5584 5582 5580 5577 5575 5573 5571 5569 5566 5564 5561 5559 5556 5554 5552 5551 5549 5547 5545 5543 5541
5619 5619 5620 5621 5622 5622 5623 5625 5625 5626 5625 5625 5625 5625 5624 5624 5624 5624 5624 5624 5624 5624 5625 5625 5624 5624 5624 5624 5624 5624 5624 5624 5624 5624 5624 5623 5623 5622 5622 5621 5620 5619 5618 5617 5616 5615 5613 5612 5611 5609 5608 5606 5604 5603 5601 5599 5597 5595 5592 5589 5587 5585 5583 5581 5578 5576 5573 5571 5568 5566 5564 5562 5560 5557 5555 5552 5550 5547 5545 5543 5541 5539 5537 5536 5534
5614 5614 5615 5616 5616 5617 5618 5619 5620 5620 5620 5620 5620 5621 5621 5621 5621 5621 5620 5620 5620 5620 5620 5620 5619 5619 5619 5619 5619 5619 5620 5620 5620 5620 5619 5619 5618 5618 5617 5616 5615 5614 5613 5612 5611 5610 5608 5607 5605 5604 5602 5601 5599 5597 5595 5593 5591 5589 5586 5583 5580 5578 5576 5573 5571 5568 5566 5564 5561 5559 5556 5554 5552 5550 5548 5545 5543 5540 5538 5536 5534 5532 5530 5528 5526
5609 5609 5610 5610 5611 5612 5613 5614 5615 5615 5615 5615 5616 5616 5616 5616 5616 5616 5616 5616 5616 5616 5616 5615 5615 5614 5614 5614 5614 5615 5615 5615 5615 5615 5614 5614 5613 5613 5612 5611 5610 5609 5608 5607 5606 5604 5603 5601 5600 5598 5597 5595 5593 5591 5589 5587 5584 5582 5579 5577 5574 5571 5568 5566 5563 5561 5558 5556 5554 5551 5549 5546 5544 5541 5539 5537 5535 5532 5530 5528 5526 5524 5522 5520 5518